| time (UTC) | temp F | wind direction | speed MPH | gust MPH | rain 1hr in | rain 24hr in | rain mn in | humidity % | barometer mb |
| 20260831051047 | 82 | 307 | 5.0 | 12.0 | 0.00 | 0.00 | 0.00 | 48 | 1015.4 |
| 20260831050545 | 82 | 160 | 5.0 | 8.0 | 0.00 | 0.00 | 0.00 | 48 | 1014.7 |
| 20260831050058 | 82 | 189 | 6.0 | 10.0 | 0.00 | 0.00 | 0.00 | 48 | 1014.4 |
| 20260831045548 | 82 | 174 | 6.0 | 10.0 | 0.00 | 0.00 | 0.00 | 47 | 1014.3 |
| 20260831045044 | 82 | 156 | 7.0 | 11.0 | 0.00 | 0.00 | 0.00 | 47 | 1014.3 |
| 20260831044612 | 82 | 145 | 8.0 | 11.0 | 0.00 | 0.00 | 0.00 | 47 | 1014.3 |
| 20260831044045 | 82 | 153 | 8.0 | 12.0 | 0.00 | 0.00 | 0.00 | 46 | 1014.2 |
| 20260831043545 | 83 | 161 | 8.0 | 13.0 | 0.00 | 0.00 | 0.00 | 46 | 1014.1 |
| 20260831043103 | 83 | 162 | 9.0 | 13.0 | 0.00 | 0.00 | 0.00 | 45 | 1014.0 |
| 20260831042549 | 83 | 162 | 9.0 | 13.0 | 0.00 | 0.00 | 0.00 | 45 | 1013.9 |
| 20260831042045 | 84 | 158 | 9.0 | 13.0 | 0.00 | 0.00 | 0.00 | 45 | 1013.9 |
| 20260831041605 | 84 | 162 | 8.0 | 15.0 | 0.00 | 0.00 | 0.00 | 44 | 1013.8 |
| 20260831041048 | 84 | 162 | 9.0 | 15.0 | 0.00 | 0.00 | 0.00 | 44 | 1013.6 |
| 20260831040548 | 84 | 143 | 10.0 | 13.0 | 0.00 | 0.00 | 0.00 | 44 | 1013.4 |
| 20260831040106 | 84 | 137 | 10.0 | 14.0 | 0.00 | 0.00 | 0.00 | 44 | 1013.1 |
| 20260831035551 | 84 | 138 | 10.0 | 16.0 | 0.00 | 0.00 | 0.00 | 43 | 1013.1 |
| 20260831035044 | 85 | 146 | 11.0 | 17.0 | 0.00 | 0.00 | 0.00 | 43 | 1013.0 |
| 20260831034559 | 85 | 174 | 13.0 | 17.0 | 0.00 | 0.00 | 0.00 | 42 | 1012.8 |
| 20260831034045 | 85 | 166 | 11.0 | 19.0 | 0.00 | 0.00 | 0.00 | 42 | 1012.6 |
| 20260831033545 | 85 | 149 | 13.0 | 19.0 | 0.00 | 0.00 | 0.00 | 41 | 1012.4 |
| 20260831033107 | 85 | 139 | 12.0 | 17.0 | 0.00 | 0.00 | 0.00 | 41 | 1012.5 |
| 20260831032545 | 85 | 140 | 12.0 | 17.0 | 0.00 | 0.00 | 0.00 | 41 | 1012.7 |
| 20260831032045 | 85 | 142 | 12.0 | 17.0 | 0.00 | 0.00 | 0.00 | 42 | 1012.9 |
| 20260831031605 | 85 | 157 | 10.0 | 14.0 | 0.00 | 0.00 | 0.00 | 42 | 1012.8 |
| 20260831031047 | 84 | 155 | 8.0 | 12.0 | 0.00 | 0.00 | 0.00 | 43 | 1012.5 |
| 20260831030548 | 85 | 176 | 8.0 | 12.0 | 0.00 | 0.00 | 0.00 | 42 | 1012.7 |
| 20260831030110 | 85 | 165 | 8.0 | 12.0 | 0.00 | 0.00 | 0.00 | 42 | 1012.8 |
| 20260831025545 | 84 | 160 | 7.0 | 12.0 | 0.00 | 0.00 | 0.00 | 43 | 1012.7 |
| 20260831025044 | 84 | 147 | 6.0 | 9.0 | 0.00 | 0.00 | 0.00 | 43 | 1012.5 |
| 20260831024618 | 84 | 143 | 6.0 | 9.0 | 0.00 | 0.00 | 0.00 | 43 | 1012.5 |
| 20260831024049 | 84 | 141 | 5.0 | 7.0 | 0.00 | 0.00 | 0.00 | 43 | 1012.5 |
| 20260831023545 | 84 | 140 | 4.0 | 6.0 | 0.00 | 0.00 | 0.00 | 43 | 1012.7 |
| 20260831023105 | 85 | 142 | 4.0 | 6.0 | 0.00 | 0.00 | 0.00 | 42 | 1012.7 |
| 20260831022547 | 85 | 139 | 4.0 | 5.0 | 0.00 | 0.00 | 0.00 | 42 | 1012.7 |
| 20260831022047 | 85 | 128 | 3.0 | 4.0 | 0.00 | 0.00 | 0.00 | 41 | 1012.6 |
| 20260831021605 | 86 | 139 | 3.0 | 4.0 | 0.00 | 0.00 | 0.00 | 40 | 1012.5 |
| 20260831021046 | 87 | 139 | 3.0 | 4.0 | 0.00 | 0.00 | 0.00 | 40 | 1012.4 |
| 20260831020545 | 87 | 158 | 3.0 | 4.0 | 0.00 | 0.00 | 0.00 | 39 | 1012.4 |
| 20260831020110 | 88 | 143 | 3.0 | 6.0 | 0.00 | 0.00 | 0.00 | 38 | 1012.3 |
| 20260831015548 | 89 | 139 | 4.0 | 6.0 | 0.00 | 0.00 | 0.00 | 37 | 1012.3 |
| 20260831015045 | 90 | 149 | 3.0 | 4.0 | 0.00 | 0.00 | 0.00 | 36 | 1012.2 |
| 20260831014626 | 91 | 155 | 2.0 | 4.0 | 0.00 | 0.00 | 0.00 | 35 | 1012.2 |
| 20260831014044 | 91 | 0 | 1.0 | 4.0 | 0.00 | 0.00 | 0.00 | 34 | 1012.1 |
| 20260831013545 | 92 | 146 | 2.0 | 6.0 | 0.00 | 0.00 | 0.00 | 34 | 1012.0 |
| 20260831013059 | 92 | 139 | 3.0 | 6.0 | 0.00 | 0.00 | 0.00 | 33 | 1012.1 |
| 20260831012546 | 93 | 165 | 3.0 | 8.0 | 0.00 | 0.00 | 0.00 | 33 | 1012.1 |
| 20260831012045 | 93 | 159 | 4.0 | 8.0 | 0.00 | 0.00 | 0.00 | 33 | 1012.2 |
| 20260831011616 | 94 | 196 | 3.0 | 11.0 | 0.00 | 0.00 | 0.00 | 33 | 1012.1 |
| 20260831011048 | 94 | 212 | 3.0 | 11.0 | 0.00 | 0.00 | 0.00 | 32 | 1012.0 |
| 20260831010547 | 94 | 213 | 6.0 | 11.0 | 0.00 | 0.00 | 0.00 | 32 | 1011.8 |
| 20260831005545 | 95 | 209 | 3.0 | 6.0 | 0.00 | 0.00 | 0.00 | 31 | 1011.7 |
| 20260831005051 | 96 | 179 | 4.0 | 6.0 | 0.00 | 0.00 | 0.00 | 30 | 1011.6 |
| 20260831004606 | 97 | 226 | 1.0 | 6.0 | 0.00 | 0.00 | 0.00 | 30 | 1011.5 |
| 20260831004044 | 98 | 227 | 4.0 | 5.0 | 0.00 | 0.00 | 0.00 | 30 | 1011.6 |
| 20260831003547 | 100 | 318 | 1.0 | 5.0 | 0.00 | 0.00 | 0.00 | 28 | 1011.4 |
| 20260831003106 | 100 | 0 | 0.0 | 3.0 | 0.00 | 0.00 | 0.00 | 28 | 1011.5 |
| 20260831002547 | 100 | 0 | 0.0 | 4.0 | 0.00 | 0.00 | 0.00 | 28 | 1011.6 |
| 20260831002044 | 100 | 310 | 2.0 | 5.0 | 0.00 | 0.00 | 0.00 | 27 | 1011.5 |
| 20260831001607 | 100 | 297 | 3.0 | 6.0 | 0.00 | 0.00 | 0.00 | 28 | 1011.4 |
| 20260831001044 | 100 | 308 | 3.0 | 6.0 | 0.00 | 0.00 | 0.00 | 28 | 1011.4 |
| 20260831000547 | 100 | 318 | 4.0 | 8.0 | 0.00 | 0.00 | 0.00 | 27 | 1011.4 |
| 20260830235547 | 100 | 285 | 5.0 | 9.0 | 0.00 | 0.00 | 0.00 | 27 | 1011.4 |
| 20260830235048 | 101 | 276 | 6.0 | 9.0 | 0.00 | 0.00 | 0.00 | 27 | 1011.4 |
| 20260830234606 | 101 | 295 | 4.0 | 7.0 | 0.00 | 0.00 | 0.00 | 27 | 1011.4 |
| 20260830234044 | 101 | 260 | 3.0 | 9.0 | 0.00 | 0.00 | 0.00 | 27 | 1011.4 |
| 20260830233547 | 101 | 265 | 4.0 | 10.0 | 0.00 | 0.00 | 0.00 | 26 | 1011.5 |
| 20260830233108 | 101 | 242 | 6.0 | 11.0 | 0.00 | 0.00 | 0.00 | 27 | 1011.4 |
| 20260830232547 | 101 | 247 | 7.0 | 11.0 | 0.00 | 0.00 | 0.00 | 27 | 1011.4 |
| 20260830232045 | 102 | 247 | 5.0 | 10.0 | 0.00 | 0.00 | 0.00 | 26 | 1011.3 |
| 20260830231610 | 101 | 246 | 5.0 | 10.0 | 0.00 | 0.00 | 0.00 | 27 | 1011.4 |
| 20260830231045 | 101 | 257 | 7.0 | 12.0 | 0.00 | 0.00 | 0.00 | 26 | 1011.4 |
| 20260830230547 | 101 | 261 | 6.0 | 12.0 | 0.00 | 0.00 | 0.00 | 26 | 1011.4 |
| 20260830230104 | 101 | 257 | 7.0 | 16.0 | 0.00 | 0.00 | 0.00 | 26 | 1011.5 |
| 20260830225545 | 101 | 271 | 8.0 | 16.0 | 0.00 | 0.00 | 0.00 | 27 | 1011.4 |
| 20260830225045 | 102 | 281 | 9.0 | 16.0 | 0.00 | 0.00 | 0.00 | 26 | 1011.4 |
| 20260830224635 | 102 | 259 | 9.0 | 16.0 | 0.00 | 0.00 | 0.00 | 27 | 1011.4 |
| 20260830224045 | 102 | 248 | 7.0 | 15.0 | 0.00 | 0.00 | 0.00 | 27 | 1011.3 |
| 20260830223548 | 102 | 207 | 11.0 | 19.0 | 0.00 | 0.00 | 0.00 | 27 | 1011.4 |
| 20260830223106 | 102 | 260 | 9.0 | 19.0 | 0.00 | 0.00 | 0.00 | 27 | 1011.4 |
| 20260830222550 | 102 | 203 | 9.0 | 19.0 | 0.00 | 0.00 | 0.00 | 27 | 1011.4 |
| 20260830222048 | 102 | 225 | 12.0 | 16.0 | 0.00 | 0.00 | 0.00 | 27 | 1011.4 |
| 20260830221614 | 102 | 241 | 9.0 | 16.0 | 0.00 | 0.00 | 0.00 | 27 | 1011.3 |
| 20260830221048 | 102 | 236 | 8.0 | 14.0 | 0.00 | 0.00 | 0.00 | 27 | 1011.4 |
| 20260830220548 | 102 | 226 | 9.0 | 16.0 | 0.00 | 0.00 | 0.00 | 28 | 1011.5 |
| 20260830220109 | 101 | 225 | 11.0 | 16.0 | 0.00 | 0.00 | 0.00 | 27 | 1011.5 |
| 20260830215548 | 102 | 218 | 8.0 | 19.0 | 0.00 | 0.00 | 0.00 | 27 | 1011.6 |
| 20260830215048 | 101 | 153 | 13.0 | 20.0 | 0.00 | 0.00 | 0.00 | 28 | 1011.6 |
| 20260830214606 | 101 | 209 | 15.0 | 20.0 | 0.00 | 0.00 | 0.00 | 28 | 1011.6 |
| 20260830214046 | 101 | 229 | 9.0 | 19.0 | 0.00 | 0.00 | 0.00 | 27 | 1011.6 |
| 20260830213548 | 101 | 245 | 12.0 | 19.0 | 0.00 | 0.00 | 0.00 | 28 | 1011.7 |
| 20260830213057 | 101 | 175 | 9.0 | 18.0 | 0.00 | 0.00 | 0.00 | 27 | 1011.7 |
| 20260830212548 | 101 | 238 | 13.0 | 18.0 | 0.00 | 0.00 | 0.00 | 28 | 1011.8 |
| 20260830212051 | 101 | 226 | 9.0 | 25.0 | 0.00 | 0.00 | 0.00 | 27 | 1011.8 |
| 20260830211602 | 101 | 222 | 6.0 | 25.0 | 0.00 | 0.00 | 0.00 | 27 | 1012.0 |
| 20260830211052 | 101 | 246 | 12.0 | 23.0 | 0.00 | 0.00 | 0.00 | 27 | 1012.1 |
| 20260830210548 | 100 | 205 | 11.0 | 16.0 | 0.00 | 0.00 | 0.00 | 27 | 1012.2 |
| 20260830210108 | 100 | 238 | 9.0 | 16.0 | 0.00 | 0.00 | 0.00 | 27 | 1012.2 |
| 20260830205549 | 100 | 261 | 6.0 | 16.0 | 0.00 | 0.00 | 0.00 | 27 | 1012.3 |
| 20260830205051 | 100 | 217 | 8.0 | 16.0 | 0.00 | 0.00 | 0.00 | 26 | 1012.4 |
| 20260830204602 | 100 | 191 | 10.0 | 16.0 | 0.00 | 0.00 | 0.00 | 27 | 1012.5 |
| 20260830204052 | 100 | 161 | 10.0 | 16.0 | 0.00 | 0.00 | 0.00 | 28 | 1012.5 |
| 20260830203548 | 99 | 221 | 10.0 | 16.0 | 0.00 | 0.00 | 0.00 | 28 | 1012.5 |
| 20260830203059 | 99 | 215 | 9.0 | 15.0 | 0.00 | 0.00 | 0.00 | 28 | 1012.6 |
| 20260830202548 | 100 | 234 | 10.0 | 18.0 | 0.00 | 0.00 | 0.00 | 29 | 1012.8 |
| 20260830202048 | 100 | 227 | 9.0 | 18.0 | 0.00 | 0.00 | 0.00 | 30 | 1012.9 |
| 20260830201602 | 99 | 188 | 3.0 | 13.0 | 0.00 | 0.00 | 0.00 | 30 | 1012.9 |
| 20260830201047 | 99 | 247 | 8.0 | 13.0 | 0.00 | 0.00 | 0.00 | 30 | 1013.0 |
| 20260830200550 | 98 | 185 | 4.0 | 13.0 | 0.00 | 0.00 | 0.00 | 31 | 1013.1 |
| 20260830200105 | 99 | 231 | 6.0 | 15.0 | 0.00 | 0.00 | 0.00 | 32 | 1013.1 |
| 20260830195550 | 99 | 216 | 9.0 | 15.0 | 0.00 | 0.00 | 0.00 | 32 | 1013.2 |
| 20260830195051 | 99 | 206 | 7.0 | 14.0 | 0.00 | 0.00 | 0.00 | 32 | 1013.1 |
| 20260830194604 | 99 | 180 | 8.0 | 13.0 | 0.00 | 0.00 | 0.00 | 32 | 1013.2 |
| 20260830194053 | 98 | 270 | 6.0 | 10.0 | 0.00 | 0.00 | 0.00 | 33 | 1013.2 |
| 20260830193548 | 98 | 203 | 2.0 | 14.0 | 0.00 | 0.00 | 0.00 | 33 | 1013.2 |
| 20260830193108 | 98 | 231 | 9.0 | 14.0 | 0.00 | 0.00 | 0.00 | 33 | 1013.2 |
| 20260830192547 | 98 | 0 | 5.0 | 11.0 | 0.00 | 0.00 | 0.00 | 33 | 1013.2 |
| 20260830192048 | 98 | 228 | 5.0 | 11.0 | 0.00 | 0.00 | 0.00 | 33 | 1013.3 |
| 20260830191601 | 98 | 220 | 4.0 | 12.0 | 0.00 | 0.00 | 0.00 | 33 | 1013.2 |
| 20260830191047 | 98 | 250 | 4.0 | 12.0 | 0.00 | 0.00 | 0.00 | 33 | 1013.4 |
| 20260830190547 | 98 | 289 | 1.0 | 12.0 | 0.00 | 0.00 | 0.00 | 33 | 1013.4 |
| 20260830190105 | 97 | 255 | 7.0 | 12.0 | 0.00 | 0.00 | 0.00 | 33 | 1013.5 |
| 20260830185547 | 97 | 133 | 7.0 | 12.0 | 0.00 | 0.00 | 0.00 | 33 | 1013.5 |
| 20260830185047 | 97 | 161 | 6.0 | 11.0 | 0.00 | 0.00 | 0.00 | 33 | 1013.4 |
| 20260830184602 | 97 | 127 | 6.0 | 11.0 | 0.00 | 0.00 | 0.00 | 34 | 1013.4 |
| 20260830184047 | 96 | 204 | 5.0 | 8.0 | 0.00 | 0.00 | 0.00 | 35 | 1013.6 |
| 20260830183547 | 96 | 293 | 3.0 | 6.0 | 0.00 | 0.00 | 0.00 | 35 | 1013.5 |
| 20260830183104 | 96 | 88 | 3.0 | 7.0 | 0.00 | 0.00 | 0.00 | 36 | 1013.5 |
| 20260830182548 | 95 | 268 | 4.0 | 7.0 | 0.00 | 0.00 | 0.00 | 36 | 1013.6 |
| 20260830182048 | 95 | 0 | 0.0 | 12.0 | 0.00 | 0.00 | 0.00 | 39 | 1013.7 |
| 20260830181604 | 94 | 0 | 3.0 | 12.0 | 0.00 | 0.00 | 0.00 | 37 | 1013.8 |
| 20260830181048 | 94 | 269 | 8.0 | 12.0 | 0.00 | 0.00 | 0.00 | 37 | 1013.8 |
| 20260830180550 | 93 | 245 | 4.0 | 11.0 | 0.00 | 0.00 | 0.00 | 38 | 1013.8 |
| 20260830180106 | 93 | 259 | 5.0 | 10.0 | 0.00 | 0.00 | 0.00 | 38 | 1013.9 |
| 20260830175550 | 93 | 263 | 5.0 | 16.0 | 0.00 | 0.00 | 0.00 | 38 | 1013.9 |
| 20260830175050 | 93 | 263 | 8.0 | 16.0 | 0.00 | 0.00 | 0.00 | 38 | 1014.0 |
| 20260830174559 | 93 | 333 | 4.0 | 13.0 | 0.00 | 0.00 | 0.00 | 39 | 1014.1 |
| 20260830174048 | 93 | 282 | 7.0 | 13.0 | 0.00 | 0.00 | 0.00 | 39 | 1014.1 |
| 20260830173547 | 92 | 234 | 8.0 | 12.0 | 0.00 | 0.00 | 0.00 | 39 | 1014.1 |
| 20260830173105 | 92 | 278 | 9.0 | 12.0 | 0.00 | 0.00 | 0.00 | 39 | 1014.1 |
| 20260830172550 | 92 | 307 | 7.0 | 14.0 | 0.00 | 0.00 | 0.00 | 40 | 1014.2 |
| 20260830172047 | 92 | 283 | 8.0 | 14.0 | 0.00 | 0.00 | 0.00 | 40 | 1014.2 |
| 20260830171612 | 92 | 283 | 8.0 | 13.0 | 0.00 | 0.00 | 0.00 | 40 | 1014.3 |
| 20260830171048 | 91 | 288 | 8.0 | 13.0 | 0.00 | 0.00 | 0.00 | 41 | 1014.4 |
| 20260830170547 | 91 | 246 | 9.0 | 19.0 | 0.00 | 0.00 | 0.00 | 41 | 1014.4 |
| 20260830170106 | 90 | 262 | 8.0 | 19.0 | 0.00 | 0.00 | 0.00 | 42 | 1014.4 |
| 20260830165547 | 90 | 246 | 7.0 | 12.0 | 0.00 | 0.00 | 0.00 | 41 | 1014.3 |
| 20260830165047 | 90 | 259 | 8.0 | 15.0 | 0.00 | 0.00 | 0.00 | 42 | 1014.3 |
| 20260830164612 | 89 | 274 | 8.0 | 15.0 | 0.00 | 0.00 | 0.00 | 43 | 1014.2 |
| 20260830164048 | 89 | 242 | 11.0 | 15.0 | 0.00 | 0.00 | 0.00 | 43 | 1014.3 |
| 20260830163547 | 89 | 274 | 10.0 | 14.0 | 0.00 | 0.00 | 0.00 | 43 | 1014.2 |
| 20260830163102 | 89 | 253 | 8.0 | 15.0 | 0.00 | 0.00 | 0.00 | 44 | 1014.2 |
| 20260830162547 | 88 | 248 | 10.0 | 15.0 | 0.00 | 0.00 | 0.00 | 43 | 1014.1 |
| 20260830162048 | 88 | 243 | 11.0 | 17.0 | 0.00 | 0.00 | 0.00 | 44 | 1014.2 |
| 20260830161610 | 88 | 251 | 12.0 | 17.0 | 0.00 | 0.00 | 0.00 | 44 | 1014.0 |
| 20260830161047 | 88 | 280 | 10.0 | 17.0 | 0.00 | 0.00 | 0.00 | 43 | 1014.1 |
| 20260830160551 | 88 | 248 | 12.0 | 17.0 | 0.00 | 0.00 | 0.00 | 43 | 1014.0 |
| 20260830160106 | 88 | 257 | 12.0 | 17.0 | 0.00 | 0.00 | 0.00 | 43 | 1014.0 |
| 20260830155547 | 88 | 240 | 12.0 | 17.0 | 0.00 | 0.00 | 0.00 | 42 | 1014.0 |
| 20260830155046 | 88 | 245 | 13.0 | 17.0 | 0.00 | 0.00 | 0.00 | 42 | 1013.8 |
| 20260830154608 | 88 | 245 | 11.0 | 17.0 | 0.00 | 0.00 | 0.00 | 42 | 1013.7 |
| 20260830154048 | 87 | 245 | 13.0 | 17.0 | 0.00 | 0.00 | 0.00 | 42 | 1013.6 |
| 20260830153550 | 87 | 248 | 12.0 | 18.0 | 0.00 | 0.00 | 0.00 | 43 | 1013.6 |
| 20260830153101 | 87 | 248 | 11.0 | 18.0 | 0.00 | 0.00 | 0.00 | 42 | 1013.5 |
| 20260830152547 | 86 | 231 | 14.0 | 18.0 | 0.00 | 0.00 | 0.00 | 43 | 1013.5 |
| 20260830152045 | 86 | 247 | 12.0 | 17.0 | 0.00 | 0.00 | 0.00 | 43 | 1013.5 |
| 20260830151606 | 86 | 250 | 4.0 | 16.0 | 0.00 | 0.00 | 0.00 | 43 | 1013.6 |
| 20260830151048 | 86 | 0 | 3.0 | 15.0 | 0.00 | 0.00 | 0.00 | 43 | 1013.5 |
| 20260830150548 | 86 | 236 | 10.0 | 15.0 | 0.00 | 0.00 | 0.00 | 44 | 1013.5 |
| 20260830150107 | 85 | 237 | 9.0 | 16.0 | 0.00 | 0.00 | 0.00 | 44 | 1013.5 |
| 20260830145550 | 85 | 220 | 9.0 | 16.0 | 0.00 | 0.00 | 0.00 | 45 | 1013.6 |
| 20260830145047 | 84 | 217 | 11.0 | 16.0 | 0.00 | 0.00 | 0.00 | 45 | 1013.6 |
| 20260830144606 | 84 | 217 | 11.0 | 18.0 | 0.00 | 0.00 | 0.00 | 45 | 1013.6 |
| 20260830144049 | 84 | 232 | 12.0 | 18.0 | 0.00 | 0.00 | 0.00 | 45 | 1013.6 |
| 20260830143548 | 83 | 214 | 12.0 | 17.0 | 0.00 | 0.00 | 0.00 | 46 | 1013.5 |
| 20260830143113 | 83 | 225 | 11.0 | 17.0 | 0.00 | 0.00 | 0.00 | 47 | 1013.5 |
| 20260830142550 | 82 | 224 | 13.0 | 18.0 | 0.00 | 0.00 | 0.00 | 47 | 1013.5 |
| 20260830142048 | 82 | 225 | 12.0 | 18.0 | 0.00 | 0.00 | 0.00 | 47 | 1013.4 |
| 20260830141554 | 82 | 234 | 12.0 | 17.0 | 0.00 | 0.00 | 0.00 | 47 | 1013.3 |
| 20260830141051 | 81 | 221 | 12.0 | 17.0 | 0.00 | 0.00 | 0.00 | 48 | 1013.4 |
| 20260830140551 | 81 | 226 | 12.0 | 17.0 | 0.00 | 0.00 | 0.00 | 48 | 1013.4 |
| 20260830140103 | 80 | 216 | 12.0 | 17.0 | 0.00 | 0.00 | 0.00 | 48 | 1013.4 |
| 20260830135545 | 80 | 215 | 11.0 | 15.0 | 0.00 | 0.00 | 0.00 | 49 | 1013.5 |
| 20260830135048 | 80 | 224 | 10.0 | 17.0 | 0.00 | 0.00 | 0.00 | 49 | 1013.5 |
| 20260830134605 | 79 | 243 | 11.0 | 17.0 | 0.00 | 0.00 | 0.00 | 49 | 1013.6 |
| 20260830134049 | 79 | 232 | 11.0 | 17.0 | 0.00 | 0.00 | 0.00 | 49 | 1013.6 |
| 20260830133548 | 79 | 210 | 8.0 | 15.0 | 0.00 | 0.00 | 0.00 | 50 | 1013.5 |
| 20260830133103 | 78 | 186 | 9.0 | 18.0 | 0.00 | 0.00 | 0.00 | 50 | 1013.5 |
| 20260830132547 | 77 | 172 | 11.0 | 19.0 | 0.00 | 0.00 | 0.00 | 51 | 1013.3 |
| 20260830132045 | 77 | 196 | 11.0 | 19.0 | 0.00 | 0.00 | 0.00 | 51 | 1013.2 |
| 20260830131606 | 76 | 190 | 12.0 | 18.0 | 0.00 | 0.00 | 0.00 | 52 | 1013.2 |
| 20260830131046 | 76 | 177 | 12.0 | 18.0 | 0.00 | 0.00 | 0.00 | 53 | 1013.2 |
| 20260830130547 | 75 | 201 | 9.0 | 15.0 | 0.00 | 0.00 | 0.00 | 54 | 1013.2 |
| 20260830130109 | 74 | 195 | 10.0 | 13.0 | 0.00 | 0.00 | 0.00 | 55 | 1013.4 |
| 20260830125545 | 74 | 200 | 9.0 | 13.0 | 0.00 | 0.00 | 0.00 | 55 | 1013.3 |
| 20260830125047 | 73 | 193 | 9.0 | 13.0 | 0.00 | 0.00 | 0.00 | 56 | 1013.2 |
| 20260830124605 | 73 | 176 | 8.0 | 13.0 | 0.00 | 0.00 | 0.00 | 56 | 1013.2 |
| 20260830124047 | 73 | 159 | 7.0 | 10.0 | 0.00 | 0.00 | 0.00 | 56 | 1013.3 |
| 20260830123549 | 72 | 210 | 7.0 | 11.0 | 0.00 | 0.00 | 0.00 | 57 | 1013.4 |
| 20260830123127 | 72 | 193 | 7.0 | 11.0 | 0.00 | 0.00 | 0.00 | 57 | 1013.3 |
| 20260830122550 | 72 | 191 | 6.0 | 9.0 | 0.00 | 0.00 | 0.00 | 56 | 1013.3 |
| 20260830122050 | 72 | 168 | 6.0 | 9.0 | 0.00 | 0.00 | 0.00 | 56 | 1013.2 |
| 20260830121608 | 72 | 211 | 6.0 | 9.0 | 0.00 | 0.00 | 0.00 | 56 | 1013.2 |
| 20260830121050 | 72 | 207 | 6.0 | 9.0 | 0.00 | 0.00 | 0.00 | 55 | 1013.2 |
| 20260830120547 | 72 | 218 | 5.0 | 9.0 | 0.00 | 0.00 | 0.00 | 55 | 1013.2 |
| 20260830120106 | 73 | 199 | 5.0 | 9.0 | 0.00 | 0.00 | 0.00 | 54 | 1013.1 |
| 20260830115547 | 73 | 197 | 5.0 | 9.0 | 0.00 | 0.00 | 0.00 | 54 | 1013.4 |
| 20260830115050 | 73 | 157 | 6.0 | 10.0 | 0.00 | 0.00 | 0.00 | 54 | 1013.2 |
| 20260830114606 | 73 | 205 | 5.0 | 12.0 | 0.00 | 0.00 | 0.00 | 53 | 1013.3 |
| 20260830114047 | 74 | 210 | 7.0 | 12.0 | 0.00 | 0.00 | 0.00 | 53 | 1013.2 |
| 20260830113547 | 74 | 181 | 8.0 | 12.0 | 0.00 | 0.00 | 0.00 | 53 | 1013.0 |
| 20260830113100 | 74 | 195 | 8.0 | 13.0 | 0.00 | 0.00 | 0.00 | 52 | 1013.1 |
| 20260830112547 | 74 | 165 | 8.0 | 15.0 | 0.00 | 0.00 | 0.00 | 52 | 1013.2 |
| 20260830112046 | 74 | 181 | 10.0 | 15.0 | 0.00 | 0.00 | 0.00 | 52 | 1013.1 |
| 20260830111602 | 75 | 193 | 10.0 | 15.0 | 0.00 | 0.00 | 0.00 | 51 | 1013.1 |
| 20260830111048 | 75 | 188 | 10.0 | 16.0 | 0.00 | 0.00 | 0.00 | 51 | 1013.1 |
| 20260830110548 | 75 | 199 | 11.0 | 16.0 | 0.00 | 0.00 | 0.00 | 51 | 1013.0 |
| 20260830105547 | 75 | 175 | 12.0 | 16.0 | 0.00 | 0.00 | 0.00 | 51 | 1012.9 |
| 20260830105048 | 75 | 174 | 12.0 | 16.0 | 0.00 | 0.00 | 0.00 | 50 | 1012.9 |
| 20260830104558 | 75 | 144 | 13.0 | 16.0 | 0.00 | 0.00 | 0.00 | 50 | 1012.7 |
| 20260830104047 | 75 | 181 | 11.0 | 16.0 | 0.00 | 0.00 | 0.00 | 50 | 1012.8 |
| 20260830103549 | 75 | 153 | 11.0 | 16.0 | 0.00 | 0.00 | 0.00 | 50 | 1013.1 |
| 20260830103105 | 75 | 167 | 13.0 | 16.0 | 0.00 | 0.00 | 0.00 | 50 | 1012.9 |
| 20260830102549 | 75 | 150 | 12.0 | 17.0 | 0.00 | 0.00 | 0.00 | 50 | 1012.9 |
| 20260830102048 | 76 | 150 | 12.0 | 17.0 | 0.00 | 0.00 | 0.00 | 50 | 1012.9 |
| 20260830101603 | 76 | 155 | 12.0 | 16.0 | 0.00 | 0.00 | 0.00 | 50 | 1012.7 |
| 20260830101048 | 76 | 167 | 12.0 | 16.0 | 0.00 | 0.00 | 0.00 | 50 | 1012.9 |
| 20260830100548 | 76 | 162 | 12.0 | 16.0 | 0.00 | 0.00 | 0.00 | 50 | 1013.0 |
| 20260830100101 | 76 | 176 | 12.0 | 16.0 | 0.00 | 0.00 | 0.00 | 50 | 1013.0 |
| 20260830095548 | 75 | 167 | 12.0 | 16.0 | 0.00 | 0.00 | 0.00 | 50 | 1013.0 |
| 20260830095053 | 75 | 166 | 10.0 | 16.0 | 0.00 | 0.00 | 0.00 | 50 | 1012.9 |
| 20260830094603 | 75 | 157 | 11.0 | 15.0 | 0.00 | 0.00 | 0.00 | 50 | 1012.9 |
| 20260830094046 | 76 | 155 | 11.0 | 16.0 | 0.00 | 0.00 | 0.00 | 50 | 1012.9 |
| 20260830093549 | 76 | 161 | 11.0 | 16.0 | 0.00 | 0.00 | 0.00 | 50 | 1013.0 |
| 20260830093114 | 76 | 171 | 11.0 | 16.0 | 0.00 | 0.00 | 0.00 | 50 | 1012.9 |
| 20260830092551 | 76 | 179 | 11.0 | 15.0 | 0.00 | 0.00 | 0.00 | 50 | 1012.9 |
| 20260830092048 | 76 | 172 | 10.0 | 17.0 | 0.00 | 0.00 | 0.00 | 50 | 1013.0 |
| 20260830091559 | 76 | 166 | 11.0 | 17.0 | 0.00 | 0.00 | 0.00 | 50 | 1013.1 |
| 20260830091050 | 76 | 164 | 11.0 | 16.0 | 0.00 | 0.00 | 0.00 | 50 | 1013.1 |
| 20260830090548 | 76 | 165 | 11.0 | 15.0 | 0.00 | 0.00 | 0.00 | 50 | 1013.1 |
| 20260830090058 | 76 | 155 | 11.0 | 15.0 | 0.00 | 0.00 | 0.00 | 50 | 1013.1 |
| 20260830085548 | 76 | 159 | 11.0 | 16.0 | 0.00 | 0.00 | 0.00 | 49 | 1013.0 |
| 20260830085048 | 77 | 159 | 12.0 | 16.0 | 0.00 | 0.00 | 0.00 | 49 | 1013.0 |
| 20260830084616 | 77 | 165 | 12.0 | 17.0 | 0.00 | 0.00 | 0.00 | 49 | 1013.1 |
| 20260830084045 | 77 | 163 | 12.0 | 17.0 | 0.00 | 0.00 | 0.00 | 49 | 1013.1 |
| 20260830083548 | 77 | 155 | 12.0 | 17.0 | 0.00 | 0.00 | 0.00 | 48 | 1013.1 |
| 20260830083104 | 78 | 158 | 13.0 | 18.0 | 0.00 | 0.00 | 0.00 | 48 | 1013.1 |
| 20260830082547 | 78 | 158 | 13.0 | 18.0 | 0.00 | 0.00 | 0.00 | 48 | 1013.0 |
| 20260830082045 | 78 | 148 | 13.0 | 18.0 | 0.00 | 0.00 | 0.00 | 48 | 1013.2 |
| 20260830081608 | 78 | 180 | 14.0 | 21.0 | 0.00 | 0.00 | 0.00 | 48 | 1013.2 |
| 20260830081048 | 78 | 151 | 13.0 | 21.0 | 0.00 | 0.00 | 0.00 | 48 | 1013.2 |
| 20260830080549 | 78 | 152 | 12.0 | 17.0 | 0.00 | 0.00 | 0.00 | 48 | 1013.1 |
| 20260830080104 | 78 | 166 | 13.0 | 17.0 | 0.00 | 0.00 | 0.00 | 47 | 1013.1 |
| 20260830075549 | 78 | 153 | 12.0 | 19.0 | 0.00 | 0.00 | 0.00 | 47 | 1013.1 |
| 20260830075048 | 79 | 156 | 14.0 | 19.0 | 0.00 | 0.00 | 0.00 | 47 | 1013.1 |
| 20260830074614 | 79 | 169 | 13.0 | 18.0 | 0.00 | 0.00 | 0.00 | 47 | 1013.2 |
| 20260830074048 | 79 | 156 | 12.0 | 18.0 | 0.00 | 0.00 | 0.00 | 47 | 1013.2 |
| 20260830073551 | 79 | 160 | 14.0 | 18.0 | 0.00 | 0.00 | 0.00 | 47 | 1013.3 |
| 20260830073105 | 79 | 168 | 13.0 | 18.0 | 0.00 | 0.00 | 0.00 | 47 | 1013.3 |
| 20260830072548 | 79 | 162 | 13.0 | 18.0 | 0.00 | 0.00 | 0.00 | 47 | 1013.3 |
| 20260830072046 | 79 | 138 | 13.0 | 17.0 | 0.00 | 0.00 | 0.00 | 47 | 1013.5 |
| 20260830071601 | 79 | 158 | 13.0 | 18.0 | 0.00 | 0.00 | 0.00 | 47 | 1013.5 |
| 20260830071048 | 79 | 158 | 13.0 | 18.0 | 0.00 | 0.00 | 0.00 | 47 | 1013.5 |
| 20260830070548 | 79 | 145 | 12.0 | 16.0 | 0.00 | 0.00 | 0.00 | 46 | 1013.6 |
| 20260830070106 | 80 | 173 | 12.0 | 17.0 | 0.00 | 0.00 | 0.00 | 46 | 1013.5 |
| 20260830065545 | 80 | 152 | 12.0 | 17.0 | 0.00 | 0.00 | 0.00 | 46 | 1013.6 |
| 20260830065045 | 80 | 144 | 12.0 | 18.0 | 0.00 | 0.00 | 0.00 | 46 | 1013.6 |
| 20260830064606 | 80 | 160 | 13.0 | 18.0 | 0.00 | 0.00 | 0.00 | 46 | 1013.5 |
| 20260830064048 | 80 | 166 | 12.0 | 17.0 | 0.00 | 0.00 | 0.00 | 46 | 1013.6 |
| 20260830063548 | 80 | 145 | 12.0 | 17.0 | 0.00 | 0.00 | 0.00 | 46 | 1013.8 |
| 20260830063102 | 80 | 169 | 13.0 | 20.0 | 0.00 | 0.00 | 0.00 | 46 | 1013.7 |
| 20260830062547 | 80 | 160 | 13.0 | 20.0 | 0.00 | 0.00 | 0.00 | 46 | 1013.7 |
| 20260830062046 | 80 | 160 | 12.0 | 17.0 | 0.00 | 0.00 | 0.00 | 46 | 1013.8 |
| 20260830061602 | 80 | 163 | 12.0 | 18.0 | 0.00 | 0.00 | 0.00 | 47 | 1013.7 |
| 20260830061046 | 80 | 169 | 13.0 | 18.0 | 0.00 | 0.00 | 0.00 | 47 | 1013.7 |
| 20260830060546 | 80 | 146 | 13.0 | 17.0 | 0.00 | 0.00 | 0.00 | 47 | 1013.8 |
| 20260830060110 | 80 | 145 | 13.0 | 18.0 | 0.00 | 0.00 | 0.00 | 47 | 1013.8 |
| 20260830055548 | 80 | 183 | 12.0 | 18.0 | 0.00 | 0.00 | 0.00 | 47 | 1013.8 |
| 20260830055047 | 81 | 148 | 13.0 | 18.0 | 0.00 | 0.00 | 0.00 | 47 | 1013.7 |
| 20260830054605 | 81 | 153 | 13.0 | 18.0 | 0.00 | 0.00 | 0.00 | 47 | 1013.7 |
| 20260830054050 | 81 | 188 | 13.0 | 19.0 | 0.00 | 0.00 | 0.00 | 47 | 1013.7 |
| 20260830053547 | 81 | 168 | 13.0 | 19.0 | 0.00 | 0.00 | 0.00 | 46 | 1013.8 |
| 20260830053104 | 82 | 173 | 13.0 | 19.0 | 0.00 | 0.00 | 0.00 | 46 | 1013.7 |
| 20260830052545 | 82 | 176 | 11.0 | 18.0 | 0.00 | 0.00 | 0.00 | 46 | 1013.6 |
| 20260830052048 | 82 | 160 | 13.0 | 18.0 | 0.00 | 0.00 | 0.00 | 45 | 1013.6 |
| 20260830051605 | 83 | 143 | 14.0 | 19.0 | 0.00 | 0.00 | 0.00 | 45 | 1013.7 |